This demonstration page uses our WeatherBlox Daily Observations layout. Learn more.

Left ArrowRight Arrow

41.55636, -103.73856

Hourly Observations for January 29, 2021

Temp ( °F °C ) Dew Point ( °F °C ) Humidity (%) Winds ( mph kmh ) Pressure ( in mb ) Visibility ( mi km ) Precip ( " mm )
12:56 am 00:56 Clear 37 2.8 20 -6.7 50 50 WSW 6 9 29.94 1014 10 16.0934 0 0
1:56 am 01:56 Mostly Cloudy 35 1.6 20 -6.9 54 54 SW 6 9 29.92 1013 10 16.0934 0 0
2:56 am 02:56 Partly Cloudy 34 1.2 20 -6.5 57 57 SSW 6 9 29.92 1013 10 16.0934 0 0
3:56 am 03:56 Mostly Clear 33 0.5 21 -6.1 62 62 WSW 3 6 29.92 1013 10 16.0934 0 0
4:56 am 04:56 Mostly Cloudy 33 0.4 20 -6.7 59 59 WNW 3 6 29.92 1013 10 16.0934 0 0
5:56 am 05:56 Mostly Cloudy 36 2 20 -6.9 52 52 Calm 29.9 1013 10 16.0934 0 0
6:56 am 06:56 Clear 30 -1.2 19 -7.1 65 65 SW 8 13 29.91 1013 10 16.0934 0 0
7:56 am 07:56 Mostly Sunny 33 0.5 18 -7.7 55 55 SSW 6 9 29.92 1013 10 16.0934 0 0
8:56 am 08:56 Sunny 34 0.9 23 -5 65 65 SW 8 13 29.92 1013 10 16.0934 0 0
9:56 am 09:56 Partly Cloudy 41 4.8 26 -3.2 57 57 E 7 11 29.88 1012 10 16.0934 0 0
10:56 am 10:56 Mostly Sunny 44 6.6 23 -4.8 44 44 Calm 29.84 1011 10 16.0934 0 0
11:56 am 11:56 Mostly Cloudy 46 7.9 20 -6.5 36 36 Calm 29.8 1009 10 16.0934 0 0
12:56 pm 12:56 Partly Cloudy 54 12 19 -7 26 26 NNE 5 7 29.72 1007 10 16.0934 0 0
1:56 pm 13:56 Sunny 56 13.3 19 -7.3 23 23 E 6 9 29.69 1006 10 16.0934 0 0
2:56 pm 14:56 Sunny 57 13.7 19 -7.1 23 23 SE 9 15 29.66 1004 10 16.0934 0 0
3:56 pm 15:56 Sunny 53 11.4 20 -6.8 28 28 ESE 9 15 29.68 1005 10 16.0934 0 0
4:56 pm 16:56 Sunny 46 7.6 20 -6.7 36 36 ESE 16 26 29.7 1006 10 16.0934 0 0
5:56 pm 17:56 Partly Cloudy 44 6.9 18 -7.9 34 34 ESE 9 15 29.69 1005 10 16.0934 0 0
6:56 pm 18:56 Mostly Cloudy 42 5.3 19 -7 41 41 S 9 15 29.7 1006 10 16.0934 0 0
7:56 pm 19:56 Mostly Cloudy 36 2.3 22 -5.3 58 58 W 6 9 29.69 1005 10 16.0934 0 0
8:56 pm 20:56 Mostly Cloudy 38 3.5 22 -5.4 53 53 W 5 7 29.66 1004 10 16.0934 0 0
9:56 pm 21:56 Mostly Cloudy 35 1.8 23 -5.2 60 60 W 8 13 29.65 1004 10 16.0934 0 0
10:56 pm 22:56 Mostly Cloudy 33 0.8 23 -5.1 65 65 Calm 29.61 1003 10 16.0934 0 0
11:56 pm 23:56 Mostly Cloudy 35 1.4 22 -5.6 60 60 SW 6 9 29.62 1003 10 16.0934 0 0

Powered by AerisWeather